Voltar ao catálogo

ONEWEB-0120

AtivoComunicaçõesPO
NORAD 47266·PAYLOAD·🇬🇧 United Kingdom

Lançado Dec 18, 2020 de Vostochny Cosmodrome

Loading…

Próximas Passagens (próximas 24 horas)

TLE

AtualizadoSource: CelesTrak SupGP

Época: Sep 14, 2026, 23:13 UTC

1 47266C 20100J   26257.96750418  .00000889  00000+0  24753-2 0  2574
2 47266  87.8986 332.8425 0001703  99.0381 295.9252 13.12444750    17

Acompanhe ONEWEB-0120 em tempo real com AllMySat

Download on the App Store